Погода в Денискине

Россия / Самарская область     54°28′49″N   51°36′57″E
темп.,
°C
ветер,
м/с
пор.,
м/с
влажн.,
%
обл.,
%
осадки,
мм/ч
давл.,
гПа
погр.,
м
6 марта, сб
сб601:00−13зюз349413 0.0 101034
04:00−14юз349628 0.0 101248
07:00−13юз479646 0.1 1011148
10:00−10зюз589573 0.3 1013297
13:00−8з5792100 0.1 1013550
16:00−9зсз5688100 0.2 1013715
19:00−14з3396100 0.0 101433
22:00−16зсз2294100 0.0 101420
7 марта, вс
вс701:00−18юз119915 0.0 101320
04:00−19юз129826 0.0 101320
07:00−19юз229625 0.0 101220
10:00−15юз249324 0.0 1012151
13:00−11юз359485 0.0 1011307
16:00−10юз479492 0.1 1010291
19:00−13ю479769 0.0 1009108
22:00−12ю5129584 0.1 1008307
8 марта, пн
пн801:00−11ю71493100 0.2 1004473
04:00−8ю81594100 1.3 1000861
07:00−6ююз81494100 1.8 998853
10:00−7зюз5108282 2.6 1000429
13:00−5юз597936 0.0 1002477
16:00−5ю5118122 0.0 1001568
19:00−4ююв5149691 0.6 997541
22:00−3зюз9149496 3.2 996844
9 марта, вт
вт901:00−10юз9178778 0.1 996577
04:00−8зюз8149489 0.5 999740
07:00−11зюз81392100 0.4 1003514
10:00−11зюз71192100 0.5 1006597
13:00−10зюз6990100 0.1 1008643
16:00−10зюз6890100 0.2 1009729
19:00−13зюз3796100 0.1 1010165
22:00−15з3397100 0.3 101253
10 марта, ср
ср1001:00−17з339997 0.1 101241
04:00−18з349898 0.1 101294
07:00−18з3498100 0.1 1013100
10:00−15зсз469596 0.2 1014328
13:00−13сз5689100 0.1 1015691
16:00−14сз5790100 0.2 1015727
19:00−17зсз3797100 0.1 1017236
22:00−20зсз35100100 0.2 1019108